BEARDSLEY LAKE (BRD)

Elevation: 3398' · STANISLAUS R basin · Operator: Oakdale South San Joaquin Irrigation District

Provisional data, subject to change.
Query executed Tuesday at 20:38:44   clock

Select a sensor type for a plot of data.
Note: Reservoir Flows are daily averages.

Earlier

Date STORAGE    RES CHG    OUTFLOW    PPT INC   
 AF   AF   CFS   INCHES  
06/27/2016 96402 100 685 0.00
06/28/2016 96438 36 691 0.00
06/29/2016 96423 -15 690 0.00
06/30/2016 96438 15 690 0.00
07/01/2016 96423 -15 691 0.00
07/02/2016 96423 0 688 0.00
07/03/2016 96438 15 689 0.00
07/04/2016 96452 14 690 0.00
07/05/2016 96473 21 690 0.00
07/06/2016 96545 72 661 0.00
07/07/2016 96344 -201 645 0.00
07/08/2016 95973 -371 643 0.00
07/09/2016 95609 -364 644 0.00
07/10/2016 95089 -520 643 0.00
07/11/2016 94641 -448 605 0.00
07/12/2016 94130 -511 589 0.00
07/13/2016 93529 -601 587 0.00
07/14/2016 92950 -579 588 0.00
07/15/2016 92337 -613 598 0.00
07/16/2016 91790 e -547 595 0.00
07/17/2016 91245 e -545 597 0.00
07/18/2016 90696 -549 595 0.00
07/19/2016 90096 -600 598 0.00
07/20/2016 89742 -354 599 0.00
07/21/2016 89353 -389 598 0.00
07/22/2016 89255 -98 597 0.00
07/23/2016 89165 -90 598 0.00
07/24/2016 88944 -221 599 0.00
07/25/2016 88812 -132 600 0.00
07/26/2016 -- -- -- --

Later | Latest

Warning! This data is preliminary and subject to revision.

Show BRD Map | Plot BRD Data | 1 Month BRD Data | Real-Time BRD Data | BRD Info